Location: ???????
(60.4260°N, 46.9069°E)
Time: 17:56:56
(UTC+00:00)

Cosmos 2237 Rocket - Pass Details

Date: 30 March 2020
Orbit: 833 x 851 km, 71.0° (Epoch: 06 June)

Event Time Altitude Azimuth Distance (km) Brightness Sun altitude
Rises 00:36:20 0° 320° (NW) 3,405 5.3 -13.0°
Reaches altitude 10° 00:38:49 10° 317° (NW) 2,469 4.5 -12.7°
Maximum altitude 00:44:21 58° 240° (WSW) 987 2.2 -12.1°
Drops below altitude 10° 00:49:53 10° 163° (SSE) 2,468 4.5 -11.5°
Sets 00:52:22 0° 159° (SSE) 3,402 5.3 -11.3°
